User: anonymous   Login
Location: Azul
(36.7830°S, 59.8500°W)
Time: 07:19:58
(UTC-03:00)
Language:

ZACube-1 - Orbit

View from above orbital plane
View from above orbital plane
View from above satellite
View from above satellite

Ground track
Ground track

The orbit data is extracted from the following two-line orbital elements,

1 39417U 13066B   24259.84808009  .00011352  00000-0  11280-2 0  9995
2 39417  97.7420 213.9108 0047467 217.9892 141.7976 14.91013291585087
Epoch (UTC): 15 September 2024 20:21:14
Eccentricity: 0.0047467
inclination: 97.7420°
perigee height: 561 km
apogee height: 628 km
right ascension of ascending node: 213.9108°
argument of perigee: 217.9892°
revolutions per day: 14.91013291
mean anomaly at epoch: 141.7976°
orbit number at epoch: 58508

The dashed part of the orbit path shows where the satellite is in the earth's shadow,  

DLR